De Queen, AR

11:35 AM CST on January 21, 2018 (GMT -0600)
Helms Sevier County

Weather History for KDEQ - June, 2013

Change the Weather History Date:

Tuesday, June 11, 2013

  Actual Average Record
Temperature  
Mean Temperature 79 °F 77 °F  
Max Temperature 93 °F 88 °F 99 °F (1953)
Min Temperature 65 °F 66 °F 47 °F (1988)
Degree Days  
Heating Degree Days 0 0  
Month to date heating degree days 0 0  
Since 1 June heating degree days 0 0  
Since 1 July heating degree days 3050 3042  
Cooling Degree Days 14 12  
Month to date cooling degree days 95 114  
Year to date cooling degree days 327 331  
Since 1 June cooling degree days 95 114  
Growing Degree Days 28 (Base 50)    
Moisture  
Dew Point 69 °F    
Average Humidity 76    
Maximum Humidity 100    
Minimum Humidity 52    
Precipitation  
Precipitation 0.00 in 0.14 in 1.43 in (1945)
Month to date precipitation 0.57 1.60  
Year to date precipitation 11.67 22.73  
Snow  
Snow 0.00 in - - ()
Month to date snowfall 0.0  
Since 1 June snowfall 0.0  
Since 1 July snowfall 4.5  
Snow Depth 0.00 in    
Sea Level Pressure  
Sea Level Pressure 29.97 in    
Wind  
Wind Speed 4 mph (SSW)    
Max Wind Speed 13 mph    
Max Gust Speed 17 mph    
Visibility 4 miles    
Events Fog    
T = Trace of Precipitation, MM = Missing Value Source: NWS Daily Summary

Daily Weather History Graph

Daily Weather History Graph

Search for Another Location

Airport or City:

Trip Planner

Search our weather history database for the weather conditions in past years. The results will help you decide how hot, cold, wet, or windy it might be!

Date:

Astronomy

Jun. 11, 2013 Rise Set
Actual Time 6:05 AM CDT 8:29 PM CDT
Civil Twilight 5:36 AM CDT 8:58 PM CDT
Nautical Twilight 5:00 AM CDT 9:34 PM CDT
Astronomical Twilight 4:21 AM CDT 10:13 PM CDT
Moon 8:44 AM CDT (6/11) 10:39 PM CDT (6/11)
Length of Visible Light 15h 21m
Length of Day
14h 23m
Waxing Crescent, 8% of the Moon is Illuminated
Jun 11
Waxing Crescent
Jun 16
First Quarter
Jun 23
Full
Jun 29
Last Quarter
Jul 8
New

Hourly Weather History & Observations

Time (CDT) Temp. Heat Index Dew Point Humidity Pressure Visibility Wind Dir Wind Speed Gust Speed Precip Events Conditions
12:42 AM 70.0 °F - 69.1 °F 97% 29.95 in 2.5 mi Calm Calm - N/A   Clear
12:53 AM 71.1 °F - 69.1 °F 93% 29.93 in 3.0 mi Calm Calm - N/A   Clear
1:00 AM 70.0 °F - 69.1 °F 97% 29.95 in 1.8 mi Calm Calm - N/A   Clear
1:09 AM 69.1 °F - 68.0 °F 96% 29.95 in 0.5 mi Calm Calm - N/A Fog Fog
1:36 AM 69.1 °F - 68.0 °F 96% 29.94 in 2.0 mi Calm Calm - N/A   Clear
1:42 AM 69.1 °F - 68.0 °F 96% 29.94 in 0.8 mi Calm Calm - N/A   Clear
1:53 AM 69.1 °F - 68.0 °F 96% 29.93 in 0.8 mi Calm Calm - N/A   Clear
2:31 AM 68.0 °F - 66.9 °F 96% 29.95 in 0.5 mi Calm Calm - N/A Fog Fog
2:47 AM 69.8 °F - 66.2 °F 88% 29.95 in 1.2 mi Calm Calm - N/A   Partly Cloudy
2:53 AM 68.0 °F - 66.9 °F 96% 29.93 in 1.0 mi Calm Calm - N/A   Mist
3:00 AM 66.9 °F - 66.0 °F 97% 29.95 in 0.5 mi Calm Calm - N/A Fog Fog
3:29 AM 66.9 °F - 66.0 °F 97% 29.95 in 0.2 mi Calm Calm - N/A Fog Fog
3:36 AM 66.9 °F - 66.0 °F 97% 29.95 in 0.5 mi Calm Calm - N/A Fog Fog
3:53 AM 66.9 °F - 66.0 °F 97% 29.94 in 0.5 mi Calm Calm - N/A Fog Fog
4:28 AM 66.9 °F - 66.0 °F 97% 29.96 in 0.2 mi Calm Calm - N/A Fog Fog
4:37 AM 66.9 °F - 66.0 °F 97% 29.96 in 0.5 mi Calm Calm - N/A Fog Fog
4:46 AM 66.0 °F - 64.9 °F 96% 29.97 in 0.2 mi Calm Calm - N/A Fog Fog
4:53 AM 66.9 °F - 64.9 °F 93% 29.96 in 0.2 mi Calm Calm - N/A Fog Fog
5:01 AM 66.9 °F - 66.0 °F 97% 29.97 in 0.5 mi Calm Calm - N/A Fog Fog
5:29 AM 66.0 °F - 64.9 °F 96% 29.98 in 0.2 mi Calm Calm - N/A Fog Fog
5:53 AM 66.0 °F - 64.9 °F 96% 29.97 in 0.2 mi Calm Calm - N/A Fog Fog
6:53 AM 66.0 °F - 66.0 °F 100% 29.99 in 0.2 mi Calm Calm - N/A Fog Fog
7:11 AM 68.0 °F - 66.9 °F 96% 30.01 in 1.0 mi Calm Calm - N/A   Mist
7:15 AM 68.0 °F - 66.9 °F 96% 30.02 in 2.0 mi Calm Calm - N/A   Scattered Clouds
7:36 AM 71.1 °F - 69.1 °F 93% 30.02 in 3.0 mi Calm Calm - N/A   Clear
7:53 AM 73.0 °F - 70.0 °F 90% 30.01 in 6.0 mi Calm Calm - N/A   Clear
8:53 AM 79.0 °F - 72.0 °F 79% 30.02 in 10.0 mi WSW 6.9 mph - N/A   Clear
9:53 AM 82.0 °F 87.9 °F 73.9 °F 76% 30.02 in 10.0 mi West 9.2 mph - N/A   Clear
10:53 AM 84.9 °F 92.1 °F 73.9 °F 69% 30.01 in 10.0 mi Variable 4.6 mph - N/A   Partly Cloudy
11:53 AM 88.0 °F 96.5 °F 73.9 °F 63% 30.01 in 10.0 mi WSW 6.9 mph - N/A   Scattered Clouds
12:53 PM 90.0 °F 99.0 °F 73.9 °F 59% 29.99 in 10.0 mi Variable 4.6 mph - N/A   Clear
1:53 PM 90.0 °F 96.4 °F 71.1 °F 54% 29.99 in 10.0 mi Variable 5.8 mph - N/A   Partly Cloudy
2:53 PM 91.9 °F 100.7 °F 73.0 °F 54% 29.97 in 10.0 mi SW 8.1 mph - N/A   Partly Cloudy
3:53 PM 91.9 °F 99.5 °F 72.0 °F 52% 29.96 in 10.0 mi South 9.2 mph - N/A   Partly Cloudy
4:53 PM 91.9 °F 99.5 °F 72.0 °F 52% 29.94 in 10.0 mi SW 6.9 mph - N/A   Scattered Clouds
5:53 PM 90.0 °F 96.9 °F 72.0 °F 55% 29.94 in 10.0 mi SSW 6.9 mph - N/A   Scattered Clouds
6:53 PM 90.0 °F 96.9 °F 72.0 °F 55% 29.93 in 10.0 mi SSW 5.8 mph - N/A   Clear
7:53 PM 88.0 °F 95.6 °F 73.0 °F 61% 29.93 in 10.0 mi South 3.5 mph - N/A   Clear
8:53 PM 82.9 °F 88.8 °F 73.0 °F 72% 29.93 in 10.0 mi SSE 3.5 mph - N/A   Clear
9:53 PM 77.0 °F - 73.9 °F 90% 29.95 in 9.0 mi Calm Calm - N/A   Clear
10:53 PM 75.9 °F - 73.9 °F 94% 29.96 in 8.0 mi Calm Calm - N/A   Clear
11:53 PM 73.9 °F - 73.0 °F 97% 29.96 in 7.0 mi Calm Calm - N/A   Clear